www.pogodaiklimat.ru

Погода и климат >> Архив погоды >> Россия >> Якутия >> Усть-Нера


ПОГОДА в Усть-Нере

  • Прогноз погоды в Усть-Нере
  • Монитор погоды в Усть-Нере
  • Климат города

АРХИВ ПОГОДЫ в Усть-Нере

Время (UTC), дата Ветер
(напр.,м/с)
 
Видим.   Явления Облачность Т
(С)
Тd
(С)
f
(%)
Тe
(С)
Тes
(С)
Комфортность P
(гПа)
Po
(гПа)
Тmin
(С)
Tmax
(С)
R
(мм)
S
(см)
03 17.02 З 1 50 км ясно -45.3 -47.8 76 -51 -50 опасность
обморожения
1033.9 956.7
06 17.02 штиль 0 50 км ясно -41.2 -43.8 76 -41 -41 опасность
обморожения
1031.2 955.7
09 17.02 штиль 0 10 км ясно -46.3 -48.6 77 -46 -46 опасность
обморожения
1033.2 955.8 -41.2
12 17.02 штиль 0 10 км ясно -48.1 -50.6 75 -48 -48 опасность
обморожения
1034.2 956.2
15 17.02 штиль 0 10 км ясно -49.3 -51.8 75 -49 -49 опасность
обморожения
1034.6 956.1
18 17.02 штиль 0 10 км ясно -50.4 -53.1 73 -50 -50 опасность
обморожения
1034.7 955.8
21 17.02 ЮЗ 2 10 км ясно -51.5 -54.6 69 -63 -63 опасность
обморожения
1035.1 955.9 -51.6 23
00 18.02 штиль 0 20 км ясно -50.6 -53.1 75 -51 -50 опасность
обморожения
1034.8 955.9 -51.8
03 18.02 З 1 20 км ясно -44.4 -47.0 75 -50 -48 опасность
обморожения
1031.4 954.7
06 18.02 штиль 0 50 км ясно -43.2 -45.6 77 -43 -43 опасность
обморожения
1029.6 953.5
09 18.02 штиль 0 10 км ясно -46.5 -49.6 70 -47 -47 опасность
обморожения
1030.5 953.3 -43.2
12 18.02 штиль 0 10 км ясно -48.6 -51.8 69 -49 -49 опасность
обморожения
1032.0 954.0
15 18.02 штиль 0 10 км ясно -50.1 -53.1 70 -50 -50 опасность
обморожения
1032.5 954.0
18 18.02 штиль 0 10 км ясно -51.5 -54.6 69 -52 -52 опасность
обморожения
1032.9 953.8
21 18.02 штиль 0 10 км ясно -51.9 -54.6 72 -52 -52 опасность
обморожения
1033.6 954.3 -52.0 23
00 19.02 З 2 50 км ясно -51.2 -53.1 80 -62 -62 опасность
обморожения
1033.8 954.8 -52.3
03 19.02 штиль 0 50 км ясно -45.5 -48.4 72 -46 -44 опасность
обморожения
1030.7 953.8
06 19.02 штиль 0 50 км ясно -41.9 -45.0 72 -42 -42 опасность
обморожения
1029.0 953.4
09 19.02 штиль 0 10 км ясно -47.9 -50.6 73 -48 -48 опасность
обморожения
1031.6 953.8 -41.9
12 19.02 штиль 0 10 км ясно -49.9 -53.1 69 -50 -50 опасность
обморожения
1033.1 954.5
15 19.02 штиль 0 10 км ясно -51.0 -53.1 78 -51 -51 опасность
обморожения
1034.2 955.2
18 19.02 штиль 0 10 км ясно -51.8 -54.6 72 -52 -52 опасность
обморожения
1035.1 955.7
21 19.02 штиль 0 10 км ясно -53.7 -56.5 71 -54 -54 опасность
обморожения
1036.4 956.4 -54.0 23
00 20.02 штиль 0 50 км ясно -52.7 -54.6 80 -53 -52 опасность
обморожения
1037.0 957.3 -54.9
03 20.02 штиль 0 50 км ясно -45.8 -48.6 73 -46 -44 опасность
обморожения
1033.8 956.5
06 20.02 штиль 0 50 км ясно -42.8 -45.6 74 -43 -43 опасность
обморожения
1032.0 955.8
09 20.02 штиль 0 10 км 4/0
[Ci fib]
-45.7 -48.6 72 -46 -46 опасность
обморожения
1033.2 956.1 -42.8
12 20.02 штиль 0 10 км 6/0
[Ci fib]
-45.4 -47.8 77 -45 -45 опасность
обморожения
1033.5 956.4
15 20.02 штиль 0 10 км слабый снег 8/0
[Cs]
-43.2 -45.6 77 -43 -43 опасность
обморожения
1031.9 955.7
18 20.02 штиль 0 10 км слабый снег 10/0
[Cs]
-42.6 -45.6 72 -43 -43 опасность
обморожения
1021.2 955.2
21 20.02 З 1 4000 м слабый снег 10/0
[Cs]
-42.1 -45.0 73 -48 -48 опасность
обморожения
1030.6 954.8 -46.1 0.3 23
00 21.02 ЮЗ 1 50 км {снег} 10/0
[As op Ci fib]
-40.4 -43.3 73 -46 -45 опасность
обморожения
1030.5 955.2
03 21.02 штиль 0 50 км 5/0
[Ci fib]
-36.0 -39.0 74 -36 -34 опасность
обморожения
1028.2 954.4
06 21.02 штиль 0 50 км 8/0
[Ci fib]
-34.0 -36.8 76 -34 -34 опасность
обморожения
1027.1 954.0
09 21.02 ЮЗ 1 10 км 10/0
[Cs]
-34.2 -37.1 75 -39 -39 опасность
обморожения
1026.8 953.7 -33.8
12 21.02 штиль 0 10 км слабый снег 10/0
[Cs]
-34.1 -37.1 74 -34 -34 опасность
обморожения
1026.3 953.3
15 21.02 штиль 0 10 км слабый снег 10/0
[As op Cs]
-34.6 -37.4 76 -35 -35 опасность
обморожения
1026.3 953.1
18 21.02 штиль 0 10 км слабый снег 10/0
[As op]
-33.7 -36.6 75 -34 -34 опасность
обморожения
1025.6 952.7
21 21.02 штиль 0 10 км в посл. час снег 10/0
[As op Cs]
-35.1 -38.0 75 -35 -35 опасность
обморожения
1025.7 952.4 -35.3 0.3 23
00 22.02 штиль 0 50 км {снег} 10/0
[As trans Cs]
-33.4 -36.3 75 -33 -33 опасность
обморожения
1025.0 952.2
03 22.02 штиль 0 50 км 10/0
[As trans Ci ing]
-28.9 -32.1 74 -29 -28 1023.0 951.3
06 22.02 штиль 0 50 км 10/0
[Ac As Cs]
-28.6 -32.4 70 -29 -28 1021.5 950.4
09 22.02 СЗ 1 10 км 10/0
[Ac trans Cs]
-36.2 -39.0 75 -41 -41 опасность
обморожения
1024.0 950.5 -28.3
12 22.02 штиль 0 10 км 10/0
[Cs]
-37.7 -40.5 75 -38 -38 опасность
обморожения
1023.9 950.0
15 22.02 З 1 10 км 10/0
[Cs]
-35.8 -38.7 75 -41 -41 опасность
обморожения
1022.5 949.1
18 22.02 штиль 0 10 км 10/0
[Ci fib]
-34.9 -37.7 75 -35 -35 опасность
обморожения
1021.9 948.9
21 22.02 СВ 2 10 км слабый снег 10/0
[As op Cs]
-32.8 -35.8 74 -41 -41 опасность
обморожения
1020.9 948.5 -39.0 23
00 23.02 штиль 0 20 км {снег} 10/0
[Ac trans Cs]
-31.7 -34.8 74 -32 -31 опасность
обморожения
1019.8 947.9
03 23.02 штиль 0 20 км {снег} 10/0
[Ac trans Cs]
-31.7 -34.8 74 -32 -30 опасность
обморожения
1019.8 947.9
06 23.02 ЮЗ 2 50 км 10/0
[Ci fib]
-27.3 -31.2 69 -34 -34 опасность
обморожения
1015.5 945.0
09 23.02 В 1 10 км 10/0
[Ci fib]
-30.7 -34.4 70 -35 -35 опасность
обморожения
1016.3 945.0 -27.0
12 23.02 СВ 1 10 км 10/0
[Ci fib]
-32.1 -35.7 70 -36 -36 опасность
обморожения
1017.8 945.9
15 23.02 штиль 0 10 км 10/0
[Ci fib]
-32.3 -35.9 70 -32 -32 опасность
обморожения
1017.8 945.8
18 23.02 штиль 0 10 км 3/0
[Ci fib]
-37.5 -41.2 68 -38 -38 опасность
обморожения
1019.9 946.3
21 23.02 штиль 0 10 км 4/0
[Ci fib]
-41.0 -43.8 74 -41 -41 опасность
обморожения
1021.5 946.7 -41.1 23

 

Местоположение метеостанции Усть-Нера (Якутия, Россия): широта 64.53 долгота 143.10 высота над уровнем моря 519 м.

В архиве по умолчанию представлена погода в Усть-Нере за последнюю неделю. Архивные данные за месяц целиком и за предыдущие месяцы, начиная с января 2011 года, Вы можете получить, выбрав интересующий диапазон дат из раскрывающегося списка и нажав кнопку "Ввод!".

Внимание! Время в таблицах - всемирное. Для получения местного времени необходимо прибавить поправку, которая в Усть-Нере равна 10 ч.

Смотрите также архив погоды в соседних городах и на ближайших метеорологических станциях:

Погода в Юртах (Якутия, Россия) (82 км)
Погода в Оймяконе (Якутия, Россия) (142 км)
Погода в Делянкире (Якутия, Россия) (144 км)
Погода в Агаякане (Якутия, Россия) (150 км)
Погода в Усть-Моме (Якутия, Россия) (214 км)
Погода в Восточной (Якутия, Россия) (224 км)
Погода в Сусумане (Магаданская область, Россия) (314 км)
Погода в Иэме (Якутия, Россия) (355 км)
Погода в Томпо (Якутия, Россия) (359 км)
Погода в Теплом Ключе (Якутия, Россия) (367 км)

Пояснения к столбцам:

Ветер - указаны скорость ветра в м/с - средняя за 10 мин, порывы в срок и между сроками (в фигурных скобках) и направление, откуда дует ветер: С - северный, СВ - северо-восточный, В - восточный, ЮВ - юго-восточный, Ю - южный, ЮЗ - юго-западный, З - западный, СЗ - северо-западный.
Видимость - горизонтальная дальность видимости в метрах или километрах. При видимости от 1 до 10 км при отсутствии осадков обычно наблюдается дымка, при ухудшении видимости до 1 км и менее - туман. В сухую погоду видимость может ухудшаться дымом, пылью или мглою.
Явления - указаны атмосферные явления, наблюдавшиеся в срок или в последний час перед сроком; фигурными скобками обозначены явления, наблюдавшиеся между сроками (за 1-3 часа до срока); квадратными скобками обозначены град или гололедные отложения с указанием их диаметра в мм.
Облачность - указаны через наклонную черту общая и нижняя облачность в баллах и высота нижней границы облаков в метрах; квадратными скобками обозначены формы облаков: Ci - перистые, Cs - перисто-слоистые, Cc - перисто-кучевые, Ac - высококучевые, As - высокослоистые, Sc - слоисто-кучевые, Ns - слоисто-дождевые, Cu - кучевые, Cb - кучево-дождевые. Подробнее классификацию облаков см. в Атласе облаков (PDF).
T - Температура воздуха - температура, измеренная на высоте 2 м над землей.
Td - Температура точки росы - температура, при понижении до которой содержащийся в воздухе водяной пар достигнет насыщения.
f - Относительная влажность воздуха - влажноcть воздуха, измеренная на высоте 2 м над землей.
Te - Эффективная температура - температура, которую ощущает одетый по сезону человек в тени. Характеристика душности погоды. При расчете учитывается влияние влажности воздуха и скорости ветра на теплоощущения человека.
Tes - Эффективная температура на солнце - температура, которую ощущает человек, с поправкой на солнечный нагрев. Характеристика знойности погоды. Зависит от высоты солнца над горизонтом, облачности и скорости ветра. Ночью, в пасмурную погоду, а также при ветре 12 м/с и более поправка равна нулю.
P - Атмосферное давление - приведенное к уровню моря атмосферное давление.
Po - Атмосферное давление - измеренное на уровне метеостанции атмосферное давление.
Tmin - Минимальная температура - минимум температуры воздуха на высоте 2 м над землей.
Tmax - Максимальная температура - максимум температуры воздуха на высоте 2 м над землей.
R - Количество осадков - Количество выпавших осадков, мм. При наведении курсора мыши на число - период времени, за который выпало указанное количество осадков.
S - Снежный покров - Высота снежного покрова, см. При наведении курсора мыши на число - состояние снежного покрова и степень покрытия местности в баллах.